Location: Chatou
(48.8898°N, 2.1586°E)
Time: 17:45:23
(UTC+00:00)

Gblst 52 Del rocket - Pass Details

Date: 03 February 2023
Orbit: 805 x 1364 km, 51.5° (Epoch: 29 March)

Event Time Altitude Azimuth Distance (km) Brightness Sun altitude
Rises 18:36:22 0° 251° (WSW) 3,420 8.9 -17.4°
Reaches altitude 10° 18:38:54 10° 252° (WSW) 2,441 7.8 -17.8°
Maximum altitude 18:44:31 85° 341° (NNW) 815 4.1 -18.7°
Enters shadow 18:47:00 34° 69° (ENE) 1,301 4.7 -19.1°
